Content
SEND FEEDBACK

Daily
Averages
Monthly
Summary
United States of America

ST. LOUIS, MISSOURI


Home > North America > United States > Missouri
Elevation: 535 feet     Latitude: 38 45N     Longitude: 090 22W

WEATHER
 
SELECT A DAY
Number of Records: 196,446;   Date Range: 1/1/95 - 8/12/14
 
SHARE

PRINT THIS DATA

[ ← Previous Day ]
WEATHER ALMANAC - JULY 23, 2013
[ Next Day → ]
[ °C ]   °F
Weather ElementAverageHighLow
Temperature82 °F91.9 °F (3:54 pm)73.9 °F (5:54 am)
Dewpoint68.4 °F71.1 °F (1:54 am)63 °F (11:54 pm)
Humidity64.7 %85 % (2:54 am)44 % (3:54 pm)
Barometer29.81 in29.88 in (11:54 pm)29.72 in (4:54 am)
Wind Speed6.5 mph10.4 mph (1:54 pm)
Wind Gust18.4 mph (3:54 pm)
Weather ElementAverage
Visibility10 mi
Wind DirectionSSE (163.3 °)

Weather ElementTotal
Precipitation---
Cooling Degree Days17.9 (Base 65)
Growing Degree Days32.9 (Base 50)
Averaged from 24 records on July 23, 2013
WEATHER CONDITIONS BREAKOUT
WIND DIRECTION BREAKOUT
WEATHER BY HOUR - JULY 23, 2013
[ °C ]   °F
Local TimeTemperatureDewpointHumidityBarometerVisibilityWind DirectionWind SpeedGust SpeedPrecipitationEventsConditions
1:54 AM77.0 °F71.1 °F82 %29.81 in10.0 miWSW (250°)5.8 mphClear
2:54 AM75.9 °F71.1 °F85 %29.81 in10.0 miCalmThunderstormClear
3:38 AM77.0 °F69.8 °F78 %29.82 in10.0 miWest (270°)5.8 mphPartly Cloudy
3:54 AM77.0 °F69.1 °F76 %29.75 in10.0 miSW (220°)4.6 mphPartly Cloudy
4:54 AM77.0 °F68.0 °F74 %29.72 in10.0 miWNW (290°)3.5 mphClear
5:54 AM73.9 °F69.1 °F85 %29.77 in10.0 miWSW (250°)5.8 mphMostly Cloudy
6:54 AM75.0 °F69.1 °F82 %29.79 in10.0 miCalmMostly Cloudy
7:54 AM75.9 °F69.1 °F79 %29.81 in10.0 miCalmClear
8:54 AM80.1 °F69.1 °F69 %29.81 in10.0 miWSW (250°)6.9 mphScattered Clouds
9:54 AM82.9 °F70.0 °F65 %29.82 in10.0 miWest (260°)6.9 mphScattered Clouds
10:54 AM84.9 °F71.1 °F63 %29.83 in10.0 miWSW (240°)8.1 mphScattered Clouds
11:54 AM88.0 °F71.1 °F57 %29.82 in10.0 miVariable5.8 mphScattered Clouds
12:54 PM89.1 °F71.1 °F55 %29.82 in10.0 miNW (310°)9.2 mphScattered Clouds
1:54 PM91.0 °F71.1 °F52 %29.81 in10.0 miNNW (330°)10.4 mph16.1 mphPartly Cloudy
2:54 PM91.0 °F70.0 °F50 %29.79 in10.0 miNNW (340°)8.1 mphScattered Clouds
3:54 PM91.9 °F66.9 °F44 %29.79 in10.0 miNorth (350°)8.1 mph18.4 mphScattered Clouds
4:54 PM90.0 °F68.0 °F48 %29.78 in10.0 miNNE (30°)9.2 mphScattered Clouds
5:54 PM89.1 °F68.0 °F50 %29.77 in10.0 miNorth (360°)10.4 mphScattered Clouds
6:54 PM86.0 °F66.0 °F51 %29.79 in10.0 miNNE (30°)5.8 mphClear
7:54 PM84.0 °F66.0 °F55 %29.81 in10.0 miNNE (20°)10.4 mphClear
8:54 PM81.0 °F64.0 °F56 %29.83 in10.0 miNNE (20°)10.4 mphMostly Cloudy
9:54 PM79.0 °F64.9 °F62 %29.87 in10.0 miNNE (30°)6.9 mphMostly Cloudy
10:54 PM77.0 °F64.9 °F66 %29.87 in10.0 miNE (40°)4.6 mphMostly Cloudy
11:54 PM73.9 °F63.0 °F68 %29.88 in10.0 miNNE (30°)8.1 mphClear
Hourly data recorded from KSUS, located miles away from St. Louis, Missouri







STORIES FROM OUR PARTNERS